Regional Weather Roundup
Issued by NWS

Home | Current Version | Previous Version | Graphics & Text | Print | Product List | Glossary On
Versions: 1 2 3 4 5 6 7 8 9 10 11 12 13 14 15 16 17 18 19 20 21 22 23 24 25 26 27 28 29 30 31 32 33 34 35 36 37 38 39 40 41 42 43 44 45 46 47 48 49 50
000
ASUS43 KIND 111009
RWRIN

WEATHER ROUNDUP FOR INDIANA
NATIONAL WEATHER SERVICE INDIANAPOLIS IN
500 AM EST SUN DEC 11 2016

NOTE: "FAIR" INDICATES FEW OR NO CLOUDS BELOW 12,000 FEET WITH NO
SIGNIFICANT WEATHER AND/OR OBSTRUCTIONS TO VISIBILITY.

* - STATION DOES NOT REPORT WEATHER SUCH AS PRECIPITATION OR FOG.

+ - STATION NOT QUALITY CONTROLLED BY THE NATIONAL WEATHER SERVICE.
    USE DATA WITH CAUTION...ESPECIALLY DEWPOINT AND RELATIVE
    HUMIDITY OBSERVATIONS.

INZ001>003-010>013-019-020-111100-
NORTHWEST INDIANA

CITY           SKY/WX    TMP DP  RH WIND       PRES   REMARKS
KNOX *+        CLOUDY    25  12  58 SE10      30.22F WCI  15
LA PORTE +     LGT SNOW  24  22  93 SE8       30.21F WCI  15
MICHIGAN CITY+ LGT SNOW  25  25 100 SE6       30.21F WCI  18
MONTICELLO +   CLOUDY    26  21  82 E7        30.20F WCI  18
RENSSELAER +     N/A     27  27 100 E13       30.18F WCI  16
VALPARAISO     LGT SNOW  25  22  88 MISG      30.19F FOG

$$

LMZ046-743>745-111100-
SOUTHERN LAKE MICHIGAN

STATION/POSITION TIME  TEMP    WIND        PRES    WAVE
                       AIR SEA DIR/SP/G            HT
                 (UTC) (F)     (DEG/KT/KT) (MB)    (FT)
BURNS HARBOR     0940   25     140/ 12/ 17 1023.0F

$$

INZ004-005-014>016-021>024-111100-
NORTH CENTRAL INDIANA

CITY           SKY/WX    TMP DP  RH WIND       PRES   REMARKS
GOSHEN         LGT SNOW  24  20  84 SE8       30.24F FOG     WCI  15
LOGANSPORT +   LGT SNOW  27  23  86 E12       30.23F WCI  16
PERU/GRISSOM   MIX PCPN  25  25 100 SE9       30.21F FOG     WCI  15
ROCHESTER +    LGT SNOW  28  28 100 SE6       30.24F WCI  22
SOUTH BEND     LGT SNOW  23  21  92 SE12      30.22F VSB 3/4 WCI  12
WARSAW +       LGT SNOW  25  21  86 SE6       30.25F WCI  18

$$

INZ006>009-017-018-025>027-111100-
NORTHEAST INDIANA

CITY           SKY/WX    TMP DP  RH WIND       PRES   REMARKS
ANGOLA *+      CLOUDY    21  21 100 SE7       30.26S WCI  13
AUBURN +       LGT SNOW  27  23  86 CALM      30.28S
FORT WAYNE     LGT SNOW  25  21  85 SE9       30.28F FOG     WCI  15
HUNTINGTON +   LGT SNOW  24  23  93 SE6       30.27S WCI  17
KENDALLVILLE + LGT SNOW  23  21  91 SE7       30.26F WCI  15

$$

INZ028-029-035-036-043>045-051>053-111100-
WEST CENTRAL INDIANA

CITY           SKY/WX    TMP DP  RH WIND       PRES   REMARKS
CRAWFORDSVL +  CLOUDY    28  20  74 SE14      30.19F WCI  16
GREENCASTLE +  CLOUDY    30  21  69 SE12      30.21F WCI  21
LAFAYETTE      CLOUDY    27  22  81 SE7       30.20F WCI  19
TERRE HAUTE    CLOUDY    31  18  58 SE12      30.19F WCI  22

$$

INZ030>032-037>040-046>048-054>057-064-065-111100-
CENTRAL INDIANA

CITY           SKY/WX    TMP DP  RH WIND       PRES   REMARKS
CP ATTERBURY + CLOUDY    32  21  64 SE7       30.27F WCI  26
FISHERS *+     CLOUDY    27  23  86 SE8       30.23F WCI  18
FRANKFORT +    LGT SNOW  30  25  81 SE14      30.21F WCI  19
GREENWOOD *+   CLOUDY    30  21  68 SE7       30.25F WCI  23
INDIANAPOLIS   CLOUDY    29  19  66 SE14      30.22F WCI  18
-EAGLE CREEK   CLOUDY    30  18  60 SE10G17   30.22F WCI  21
KOKOMO +       FLURRIES  25  23  92 SE12      30.23F WCI  14
MARION +       CLOUDY    25  22  90 SE7       30.26F WCI  17
MT COMFORT *+  CLOUDY    28  21  74 SE10      30.24F WCI  19
SHELBYVILLE    CLOUDY    30  19  63 SE10      30.25F WCI  21
ZIONSVILLE +   CLOUDY    27  20  76 SE8       30.22F WCI  19

$$

INZ033-034-041-042-049-050-058-059-111100-
EAST CENTRAL INDIANA

CITY           SKY/WX    TMP DP  RH WIND       PRES   REMARKS
MUNCIE         CLOUDY    28  21  75 SE8       30.25F WCI  20

$$

INZ060-061-067>069-081>083-085>088-111100-
SOUTHWEST INDIANA

CITY           SKY/WX    TMP DP  RH WIND       PRES   REMARKS
EVANSVILLE     CLOUDY    34  20  56 SE5       30.23F WCI  30
HUNTINGBURG *+ CLOUDY    33  19  56 SE8       30.24F WCI  26
WASHINGTON +   CLOUDY    32  23  69 SE7       30.23F WCI  26

$$

INZ062-063-066-070>080-084-089>092-111100-
SOUTH CENTRAL AND SOUTHEAST INDIANA

CITY           SKY/WX    TMP DP  RH WIND       PRES   REMARKS
BLOOMINGTON    CLOUDY    30  17  58 SE9       30.23F WCI  22
MADISON *+     CLOUDY    32  19  59 E7        30.29F WCI  26
NORTH VERNON + CLOUDY    30  23  74 SE6       30.28F WCI  24
SEYMOUR +      CLOUDY    32  19  59 SE5       30.28F WCI  27

$$





USA.gov is the U.S. government's official web portal to all federal, state and local government web resources and services.